Probability
0 87 100 100 100 100 100 100 90 74 65 74 94 94 97 94 94 100 100 100 100 100 100 97 100 100 100 100 100 100 100 100 100 100 100 100 100 100 100 100 100 87 100
0 90 100 100 100 100 100 100 94 84 84 81 97 97 97 97 100 100 100 100 100 100 100 100 100 100 100 100 100 100 100 100 100 100 100 100 100 100 100 100 100 97 97
0 90 100 100 100 100 100 100 97 97 87 90 97 90 94 97 100 100 100 100 100 100 100 100 100 100 100 100 100 100 90 90 97 100 97 48 94 100 100 100 100 100 100
6 90 100 100 100 100 100 100 100 100 94 94 94 94 77 77 90 100 100 100 100 100 94 94 94 94 94 94 97 97 94 87 87 100 71 39 58 100 100 100 100 100 100
6 52 100 100 100 100 100 100 100 100 100 100 100 97 77 61 68 68 87 94 90 84 84 81 68 61 68 71 77 81 87 74 68 68 42 23 3 97 100 100 100 97 97
0 55 100 100 100 100 100 100 100 100 100 100 100 94 84 65 55 58 61 61 61 58 48 52 48 48 55 48 42 42 48 42 35 16 10 3 0 97 100 100 100 100 100
0 55 100 100 100 100 100 100 100 100 100 100 100 100 97 94 87 74 74 68 58 48 23 16 13 16 23 19 19 29 29 19 6 0 0 0 0 97 100 100 100 100 100
3 55 100 100 100 100 100 100 100 100 100 100 100 100 100 100 100 100 97 97 90 84 74 71 71 58 52 52 42 48 55 29 13 3 0 0 3 97 100 100 100 100 100
0 35 100 100 100 100 100 100 100 100 100 100 100 100 100 100 100 100 100 100 100 100 100 100 100 100 97 97 90 94 94 90 77 52 32 0 10 100 100 100 100 100 100
0 6 81 94 100 100 100 100 100 100 100 100 100 100 100 100 100 100 100 100 100 100 100 100 100 100 100 100 100 100 100 100 97 87 71 16 87 100 100 97 100 100 100
0 0 19 58 71 97 100 100 100 100 100 100 100 100 100 100 100 100 100 100 100 100 100 100 100 100 100 100 100 100 100 100 97 90 74 58 100 100 100 100 100 100 100
0 0 3 16 42 61 87 97 100 100 100 100 100 100 100 100 100 100 100 100 100 100 100 100 100 100 100 100 97 97 97 100 100 84 68 81 84 87 94 97 97 97 100
6 0 0 10 19 35 26 39 94 100 100 100 100 100 100 100 97 100 94 100 100 100 100 100 100 100 90 90 84 81 81 84 77 71 61 74 77 77 81 90 90 90 94
19 10 0 3 6 16 10 19 68 94 100 100 100 100 97 97 97 87 77 81 100 100 100 100 100 94 90 84 74 74 71 74 68 65 48 71 74 74 71 77 87 87 94
42 19 6 3 23 23 32 55 61 74 97 100 100 100 97 94 90 87 81 71 77 81 87 84 77 74 74 71 68 71 68 58 55 65 55 71 68 74 71 77 74 77 84
19 19 16 26 55 68 84 94 97 100 100 100 100 100 97 97 87 90 55 45 39 45 32 45 48 48 48 48 52 48 35 35 39 48 42 48 68 71 68 71 74 77 87
10 10 19 29 48 68 94 100 100 100 97 97 100 97 97 97 84 65 42 35 35 26 23 16 13 13 10 13 13 19 19 23 26 29 42 35 42 77 74 74 77 81 84
6 13 13 23 42 65 74 94 100 100 100 100 97 97 97 97 87 58 35 26 26 13 6 3 3 3 3 3 0 0 6 3 6 16 19 32 32 32 61 74 84 87 87
0 0 10 13 29 48 65 81 87 94 97 97 100 97 97 94 71 39 23 13 6 3 0 3 0 0 0 0 0 0 0 0 3 6 10 19 29 26 19 42 77 90 87
0 0 3 10 16 32 58 61 61 65 74 68 90 71 61 48 52 19 6 3 0 0 0 0 0 0 0 0 0 0 0 0 0 0 0 3 3 19 32 26 29 61 84
0 0 6 6 10 23 29 45 35 35 29 55 58 42 32 16 10 3 0 0 0 0 0 0 0 0 0 0 0 0 0 0 0 0 0 0 0 6 16 16 19 13 35
0 0 3 6 6 10 16 23 16 10 10 10 35 19 10 3 0 0 0 0 0 0 0 0 0 0 0 0 0 0 0 0 0 0 0 0 0 3 6 6 10 16 19
0 0 3 0 0 0 3 3 3 0 0 3 3 3 0 0 0 0 0 0 0 0 0 0 0 0 0 0 0 0 0 0 0 0 0 0 0 0 0 0 6 16 19
0 0 0 0 0 0 0 0 3 3 0 0 0 3 0 0 0 0 0 0 0 0 0 0 0 0 0 0 0 0 0 0 0 0 0 0 0 0 0 0 0 10 23
0 0 0 0 0 0 0 0 0 0 0 0 0 0 0 0 0 0 0 0 0 0 0 0 0 0 0 0 0 0 0 0 0 0 0 0 0 0 0 0 0 3 3
0 0 0 0 0 0 0 0 0 0 0 0 0 3 0 0 0 0 0 0 0 0 0 0 0 0 0 0 0 0 0 0 0 0 0 0 0 0 0 0 0 3 0
Height
5917 5916 5915 5915 5914 5914 5913 5913 5912 5912 5912 5912 5911 5910 5909 5908 5907 5905 5904 5903 5902 5900 5899 5897 5896 5895 5894 5893 5892 5891 5890 5890 5889 5888 5888 5887 5887 5886 5886 5885 5885 5884 5885
5917 5916 5915 5914 5914 5913 5913 5912 5912 5911 5911 5911 5910 5909 5908 5907 5906 5905 5904 5903 5902 5900 5899 5897 5896 5894 5893 5892 5892 5891 5890 5890 5889 5888 5888 5887 5887 5887 5887 5886 5886 5886 5886
5916 5915 5914 5914 5913 5913 5912 5912 5911 5910 5910 5909 5909 5908 5907 5906 5905 5904 5903 5902 5901 5900 5898 5897 5895 5894 5892 5891 5891 5890 5890 5889 5889 5888 5888 5888 5887 5887 5887 5887 5887 5887 5886
5915 5914 5914 5913 5913 5912 5911 5911 5910 5909 5909 5908 5907 5906 5906 5905 5904 5903 5902 5901 5900 5898 5897 5896 5894 5893 5892 5891 5890 5889 5889 5889 5888 5888 5888 5888 5887 5887 5886 5887 5887 5887 5887
5915 5914 5914 5913 5912 5911 5910 5910 5909 5908 5907 5906 5905 5905 5904 5903 5902 5901 5900 5899 5898 5897 5896 5895 5893 5892 5891 5890 5889 5888 5888 5888 5887 5887 5887 5887 5887 5886 5886 5886 5887 5887 5887
5914 5914 5913 5912 5911 5910 5909 5908 5907 5906 5905 5904 5903 5902 5901 5900 5900 5899 5898 5897 5896 5896 5895 5893 5892 5891 5890 5889 5888 5887 5887 5887 5886 5886 5886 5886 5886 5886 5885 5885 5886 5886 5887
5913 5912 5912 5911 5910 5909 5908 5907 5906 5905 5903 5902 5901 5899 5898 5897 5896 5896 5895 5894 5894 5893 5892 5892 5891 5889 5889 5888 5887 5886 5886 5885 5885 5885 5884 5884 5885 5884 5884 5884 5885 5885 5886
5912 5911 5910 5909 5908 5907 5906 5905 5903 5902 5900 5899 5897 5896 5894 5893 5892 5892 5891 5891 5890 5890 5889 5888 5888 5887 5886 5885 5885 5884 5884 5884 5884 5884 5883 5883 5883 5883 5883 5883 5883 5884 5884
5911 5910 5909 5907 5906 5905 5903 5902 5900 5898 5896 5894 5893 5891 5890 5889 5888 5887 5886 5886 5886 5885 5885 5884 5884 5883 5883 5882 5882 5881 5881 5881 5881 5881 5881 5881 5881 5880 5881 5881 5881 5882 5882
5908 5907 5906 5905 5903 5901 5899 5897 5895 5893 5891 5889 5888 5886 5885 5884 5883 5882 5881 5881 5881 5880 5880 5880 5879 5879 5878 5878 5877 5877 5877 5877 5877 5878 5878 5878 5877 5878 5878 5878 5879 5879 5880
5906 5904 5903 5901 5898 5896 5894 5892 5890 5888 5886 5884 5882 5881 5880 5879 5878 5877 5876 5875 5875 5875 5874 5874 5873 5873 5872 5872 5872 5872 5872 5872 5872 5872 5873 5873 5873 5874 5874 5875 5875 5876 5876
5902 5900 5898 5896 5893 5891 5888 5886 5885 5883 5881 5879 5877 5876 5874 5873 5872 5871 5870 5869 5869 5868 5868 5867 5867 5867 5866 5866 5866 5866 5866 5866 5865 5866 5866 5867 5868 5868 5869 5870 5871 5871 5872
5899 5896 5892 5890 5887 5885 5883 5881 5879 5877 5875 5874 5872 5870 5869 5868 5866 5865 5864 5863 5863 5862 5862 5861 5861 5861 5860 5859 5859 5859 5859 5859 5858 5858 5859 5860 5861 5862 5862 5864 5865 5867 5868
5894 5889 5885 5882 5880 5879 5878 5876 5874 5872 5870 5868 5866 5865 5863 5862 5860 5859 5858 5858 5857 5856 5855 5855 5855 5854 5854 5853 5852 5853 5852 5851 5851 5851 5851 5853 5854 5854 5855 5857 5859 5861 5862
5885 5881 5877 5873 5871 5871 5870 5869 5868 5866 5864 5862 5860 5858 5857 5855 5854 5853 5852 5852 5851 5850 5850 5849 5849 5848 5848 5847 5847 5846 5846 5846 5845 5845 5845 5846 5846 5847 5849 5850 5852 5854 5856
5875 5870 5867 5864 5862 5861 5861 5861 5861 5859 5857 5855 5854 5853 5851 5849 5848 5847 5846 5845 5845 5844 5844 5843 5843 5842 5842 5842 5842 5841 5840 5840 5839 5839 5840 5841 5841 5842 5842 5843 5845 5847 5849
5865 5859 5854 5850 5846 5847 5849 5851 5851 5850 5850 5849 5848 5846 5845 5843 5842 5841 5840 5839 5839 5838 5838 5837 5837 5837 5837 5837 5837 5836 5836 5836 5835 5835 5835 5835 5836 5836 5836 5837 5839 5840 5842
5856 5848 5842 5833 5827 5827 5834 5838 5840 5841 5840 5839 5838 5838 5838 5836 5835 5834 5833 5833 5832 5831 5831 5830 5831 5831 5832 5832 5832 5832 5832 5831 5831 5830 5830 5830 5830 5831 5831 5832 5833 5834 5836
5846 5837 5829 5820 5810 5810 5817 5823 5828 5830 5830 5830 5829 5830 5829 5829 5828 5827 5827 5826 5825 5825 5824 5824 5825 5825 5826 5827 5827 5827 5827 5827 5826 5825 5825 5825 5825 5825 5825 5826 5827 5827 5829
5840 5834 5825 5814 5805 5801 5806 5812 5819 5821 5822 5823 5823 5823 5822 5822 5821 5821 5820 5819 5818 5819 5819 5819 5819 5820 5821 5822 5823 5823 5823 5823 5822 5821 5820 5819 5819 5819 5819 5819 5820 5820 5821
5835 5827 5820 5816 5808 5804 5804 5807 5811 5815 5816 5817 5817 5817 5816 5815 5815 5814 5814 5813 5813 5813 5813 5814 5814 5815 5816 5818 5818 5819 5819 5819 5818 5817 5815 5814 5813 5813 5813 5813 5813 5814 5814
5832 5825 5821 5817 5812 5808 5806 5806 5808 5809 5810 5811 5811 5811 5810 5809 5809 5808 5808 5808 5808 5808 5808 5808 5809 5810 5811 5813 5814 5815 5815 5815 5814 5813 5811 5809 5808 5807 5806 5805 5806 5807 5808
5828 5824 5819 5816 5812 5808 5805 5804 5804 5804 5804 5804 5804 5804 5803 5803 5802 5802 5802 5802 5802 5803 5803 5803 5804 5805 5806 5807 5809 5810 5810 5810 5808 5808 5807 5805 5802 5800 5799 5798 5798 5799 5800
5823 5819 5815 5811 5807 5805 5802 5800 5799 5798 5797 5797 5796 5797 5796 5796 5795 5795 5795 5796 5796 5796 5797 5797 5798 5799 5800 5801 5802 5803 5804 5805 5804 5802 5801 5800 5798 5795 5793 5792 5791 5791 5792
5814 5811 5808 5804 5801 5797 5795 5793 5792 5791 5791 5790 5789 5789 5789 5788 5788 5788 5788 5788 5788 5789 5789 5790 5791 5791 5793 5794 5795 5796 5797 5798 5799 5798 5796 5794 5793 5790 5788 5785 5784 5784 5785
5804 5801 5798 5795 5792 5789 5787 5785 5784 5783 5782 5782 5781 5780 5780 5780 5780 5780 5780 5780 5780 5780 5781 5782 5782 5783 5785 5786 5788 5789 5790 5790 5792 5792 5791 5789 5786 5784 5782 5780 5778 5777 5777
Wind_Speed
3 2 2 1 1 1 2 3 5 7 8 10 10 10 10 11 11 11 11 12 12 13 14 14 13 11 10 9 8 8 8 7 6 5 4 4 4 4 5 7 9 9 9
4 3 3 3 3 3 3 3 4 6 8 9 9 9 9 9 9 9 9 10 10 12 13 15 15 13 10 8 7 7 7 7 6 5 3 3 4 3 3 3 5 7 8
5 5 5 5 5 5 5 5 5 6 7 8 8 7 7 7 8 8 8 9 10 11 13 14 15 14 11 8 7 6 6 6 6 6 4 3 2 3 3 2 2 3 6
6 6 6 6 6 7 7 7 6 6 6 6 6 6 7 7 7 7 8 9 10 11 13 14 14 14 12 9 7 6 5 5 6 6 5 4 2 1 2 2 1 1 2
7 7 7 7 7 8 8 8 7 7 6 6 7 7 7 7 7 7 8 9 10 12 12 13 13 13 12 10 8 7 6 5 6 6 5 4 3 2 0 0 0 0 1
9 9 9 9 9 9 9 8 8 8 8 9 9 10 10 10 10 10 10 10 11 12 12 12 12 12 11 11 9 8 6 5 5 6 7 5 4 4 2 2 3 2 1
9 9 9 9 9 9 9 9 10 10 11 12 13 13 13 13 13 13 13 13 13 13 13 13 13 12 12 12 11 10 8 7 6 6 7 6 6 5 4 4 4 4 4
9 9 9 9 10 10 11 12 12 13 14 15 16 16 16 16 17 17 17 16 16 16 16 16 15 15 15 14 14 13 12 10 9 7 8 8 7 7 6 5 5 5 6
10 10 11 11 12 13 14 15 16 17 17 18 19 19 19 19 19 20 20 20 20 20 19 19 19 19 19 19 18 17 16 15 13 12 11 11 10 10 9 8 7 7 7
13 14 15 16 17 18 18 18 19 19 20 20 20 21 21 21 22 22 23 23 23 23 23 23 23 23 23 23 23 22 22 21 19 17 16 15 14 13 12 11 10 9 9
16 18 20 22 22 22 21 21 20 20 21 21 21 21 22 22 23 24 25 25 26 26 26 26 27 27 27 27 27 26 26 26 25 23 22 20 19 17 16 15 13 12 11
22 23 24 26 25 24 23 22 21 21 22 21 21 21 21 22 22 23 24 26 27 27 27 28 28 28 29 29 29 28 28 29 29 28 26 25 24 23 21 20 18 16 15
28 28 28 28 27 26 24 23 23 23 23 22 21 21 21 20 21 22 22 24 25 26 27 28 28 29 29 30 30 29 29 30 29 29 29 28 28 28 26 24 23 21 19
32 33 31 30 28 27 25 24 25 25 24 22 21 20 20 20 21 21 22 21 22 24 25 26 27 28 29 30 29 28 27 26 26 25 25 27 27 29 28 27 26 25 23
35 35 35 33 30 29 27 26 25 25 25 23 21 21 22 22 23 22 22 21 22 23 24 25 25 25 25 25 24 24 23 23 22 21 20 21 22 24 26 27 28 27 27
39 39 37 36 33 32 29 28 27 26 24 23 22 23 23 24 24 23 23 22 22 22 23 24 24 25 25 23 21 20 20 20 20 18 18 19 19 20 22 24 27 28 28
44 44 43 39 37 36 34 30 27 25 24 24 23 23 23 24 25 24 23 23 23 23 23 24 24 23 22 21 20 19 17 17 17 17 18 19 19 19 20 21 24 26 27
47 46 44 41 38 35 35 32 27 25 24 24 23 22 23 24 24 24 23 22 23 23 23 23 22 21 20 18 16 15 14 15 15 16 17 18 19 20 20 22 23 23 26
49 49 51 40 31 30 33 30 26 25 25 24 22 23 24 24 24 24 23 22 22 22 21 21 20 19 16 14 12 11 11 11 12 14 15 17 18 20 21 22 23 23 25
51 55 53 41 30 24 27 27 26 25 23 22 22 23 24 24 24 24 23 22 20 19 18 18 17 16 14 12 10 10 9 9 10 12 14 15 17 20 21 23 24 25 26
49 49 46 43 34 21 17 21 24 24 23 22 22 23 24 24 23 23 23 21 19 18 16 16 15 15 14 13 12 11 10 9 10 11 13 15 17 19 21 23 25 26 27
44 42 40 36 28 20 19 18 20 21 21 23 23 24 24 24 24 23 22 20 19 18 17 16 17 17 16 15 14 12 12 11 11 12 13 15 17 19 20 23 26 28 29
41 41 38 33 28 22 21 20 21 21 22 23 23 23 23 23 23 23 22 21 20 20 19 19 19 19 19 17 16 14 13 13 14 14 14 15 17 19 20 23 26 29 31
40 39 37 33 29 26 22 20 21 20 21 22 22 22 23 23 23 23 23 23 23 23 22 22 21 21 21 21 19 17 15 14 14 17 17 16 17 19 20 22 24 28 30
42 40 38 35 31 29 28 26 24 24 23 23 23 24 24 25 25 25 26 26 26 26 26 25 24 23 24 24 22 21 19 17 15 16 19 20 18 19 20 22 23 26 29
45 44 41 39 36 35 34 33 32 31 30 29 29 29 29 28 28 28 29 30 30 30 29 28 27 26 26 27 26 24 23 21 19 18 19 21 21 21 20 21 23 24 26
Wind_Direction
165 166 148 135 107 65 40 30 19 9 4 5 7 9 12 15 18 20 20 18 15 13 13 12 11 9 8 9 15 21 25 28 34 43 51 58 63 64 74 86 93 103 114
214 215 221 242 256 270 290 317 340 347 350 355 358 0 2 4 7 8 9 8 5 2 359 358 358 357 354 352 355 4 11 17 22 28 40 57 69 70 69 84 98 105 109
226 230 236 246 256 265 277 293 312 328 336 343 349 351 351 352 352 352 351 352 352 351 349 348 349 350 349 345 341 345 353 358 2 10 22 34 63 77 73 70 103 122 122
238 240 245 250 255 263 274 285 297 309 318 326 333 335 335 336 335 334 335 337 339 341 342 343 343 346 348 347 341 336 336 337 338 346 2 13 20 72 86 70 63 164 166
252 251 256 260 262 265 270 276 283 289 295 303 308 312 313 313 312 311 314 318 324 329 334 337 339 343 345 345 344 340 335 327 322 321 333 351 356 358 324 236 237 56 202
258 256 259 260 261 262 264 267 273 278 285 291 294 295 295 295 294 294 296 301 307 314 320 325 328 332 335 337 337 338 336 330 319 309 307 318 324 333 329 278 251 242 238
266 261 259 258 258 259 262 265 270 276 281 285 287 288 287 285 284 283 285 288 293 299 304 309 311 314 317 319 321 322 324 322 314 303 295 292 296 300 308 298 268 250 243
267 262 258 260 263 266 268 271 276 279 281 282 282 282 282 281 280 279 279 280 283 287 291 294 296 298 300 302 304 305 307 307 306 298 289 283 280 280 280 281 276 260 250
267 266 267 269 271 273 275 278 280 281 281 281 280 279 278 277 277 277 277 277 279 281 283 285 287 289 289 290 290 292 293 293 293 291 286 279 272 269 266 264 264 261 254
273 275 277 279 280 280 281 282 283 283 282 281 280 279 277 276 275 274 274 275 276 278 279 280 281 282 283 283 283 283 283 283 282 281 279 276 271 266 262 256 255 255 252
279 281 282 283 283 283 284 286 287 287 286 284 283 282 280 278 276 275 274 274 275 277 278 278 279 279 280 281 281 280 279 278 277 275 273 269 267 265 261 256 252 250 248
282 282 283 283 283 284 286 289 290 292 292 290 288 287 285 283 281 278 277 275 275 276 276 277 279 280 280 281 281 280 278 277 276 273 270 265 262 262 259 255 253 249 246
284 283 282 281 281 283 287 292 295 297 298 295 291 289 289 287 286 283 281 279 277 276 275 275 277 279 280 279 278 278 279 277 277 273 268 265 260 259 255 251 250 250 246
286 280 276 277 279 281 286 291 296 298 297 294 291 289 288 288 287 284 282 280 280 279 278 278 278 279 279 278 277 277 279 278 277 276 271 265 262 256 252 249 249 249 246
285 279 273 274 275 276 279 285 290 291 291 289 288 288 287 287 287 286 285 280 276 275 276 277 277 278 278 279 280 280 278 279 276 278 272 267 264 258 254 252 249 248 245
284 278 270 270 269 268 268 272 277 281 281 281 281 282 284 285 284 282 283 279 275 272 271 270 271 273 275 276 277 280 283 280 280 277 273 271 267 261 256 253 248 245 244
285 281 275 268 258 258 260 259 265 270 272 275 278 280 282 283 284 283 282 279 276 273 270 268 268 270 270 271 273 276 278 278 278 275 274 272 269 263 262 256 250 246 244
290 284 281 274 258 254 255 250 255 263 270 275 279 285 287 287 286 284 282 279 274 270 268 267 267 266 265 266 267 269 273 275 277 276 274 272 269 267 263 257 253 248 245
293 295 295 290 268 254 250 245 251 259 265 274 283 289 290 289 288 285 282 279 274 269 266 263 262 260 258 256 258 264 271 276 282 284 281 276 272 268 264 260 256 252 248
298 303 303 298 287 258 247 240 245 251 261 272 282 287 288 289 288 286 284 280 273 266 260 256 251 248 245 243 247 255 265 277 287 291 290 285 279 272 267 262 257 254 250
303 307 309 308 302 284 249 238 241 253 268 275 279 283 285 285 283 282 281 276 267 257 250 246 244 241 239 237 241 248 260 274 288 295 298 296 288 279 271 264 259 255 252
305 309 311 314 312 290 271 264 268 276 278 277 278 281 282 279 277 276 274 269 260 250 243 243 243 241 238 236 239 246 258 274 287 296 302 302 297 289 278 268 261 255 251
305 309 312 313 312 306 295 286 283 283 282 278 274 275 275 274 272 271 266 259 252 247 245 245 245 245 244 241 243 250 260 277 290 297 301 302 301 297 289 277 265 256 251
304 308 310 311 307 304 302 294 289 290 289 282 275 270 269 268 267 264 259 253 248 247 247 248 250 251 249 249 250 253 261 271 283 293 299 302 303 300 294 286 272 260 253
303 307 308 310 307 304 303 299 294 291 288 284 277 272 268 264 260 257 255 251 248 247 248 249 250 250 250 252 254 258 264 269 277 284 293 299 303 301 297 290 280 266 256
303 306 307 307 306 303 301 297 293 289 285 281 277 273 268 263 259 255 253 252 251 249 249 250 251 251 251 253 256 260 266 272 278 280 285 293 299 302 301 292 282 270 259